THORAD AGENA D DEB, 42547

Orbit data source: Space-Track

THORAD AGENA D DEB, 42547 is space debris in SSO originally from a launch on Wed, 08 Apr 1970 UTC launched from the Air Force Western Test Range (AFWTR). Debris objects in space refer to the collection of defunct objects orbiting the Earth. Examples of debris include non-operational satellites, rocket bodies, and fragments generated from explosions, collisions, or faulty payload assembly.

Loading next visibility...
Identifier
42547, 1970-025TD
Orbit
SSO
Country
Flag of USUS
Related business
Manufacturer
Unknown
Mission
Spacecraft
Bus & Motor
Unknown
Mass
Unknown
Launch date (UTC)
1970-04-08 (56 years ago)
Launch vehicle
Unknown
Launch site
Air Force Western Test Range (AFWTR)
Object type
Payload
Rocket body
Debris
Shape & HBR
Unknown shape, 0.1 m
Radar Cross Section
Small (<0.1 m²)

Expand to show TLE details & history
Last TLE update: 8 hours ago

TLE from 8 hours ago
0 THORAD AGENA D DEB
1 42547U 70025TD  26036.24826857  .00001625  00000-0  14904-2 0  9999
2 42547 100.1778  37.9586 0014063  84.9406 275.3350 13.84615037614331
Epoch: 2026-02-05T05:57Z
TLE epoch observation values (Epoch: 2026-02-05T05:57:30.404Z)
Latitude
-0.0001°
Longitude
173.17871°
Altitude
949.435 km
Speed
7.378 km/s
True Right ascension
02h 31m 50s
True Declination
0° 00' 00"
Sunlit
Object was in daylight at epoch
Visualization orbit readout
Latitude
Unknown
Longitude
Unknown
Altitude
Unknown
Speed
Unknown
Apparent Right ascension
Unknown
Apparent Declination
Unknown
Sunlit
N/A
Visualization observer readout
Local Sidereal Time
16:29:36
Azimuth
Unknown
Elevation
Unknown
Doppler factor
Unknown
Orbital elements
Apogee altitude
955.142 km
Perigee altitude
934.546 km
Semi-major axis
7,322.981 km
Eccentricity
0.00141
Inclination
100.1778°
RAAN
37.9586°
Arg. of periapsis
84.9406°
True anomaly
275.17452°
Mean anomaly
275.335°
Eccentric anomaly
275.25476°
Mean motion
3.46347 °/min
Orbital period
103.94 mins
BSTAR
0.0014904
Loading maneuver chart data...
Computing Atmospheric mass density...

Documentation

Showing up to 5 results
|